Regional Weather Roundup
Issued by NWS Midland/Odessa, TX

Skip options and go directly to product.
Home | Oldest Version | Next Version | Current Version | All | Text Only | Save Text | Print | Product List | Glossary On

Skip product version selection by date and time.   
850
ASUS44 KMAF 011401
RWRMAF
MIDLAND AREA WEATHER ROUNDUP
NATIONAL WEATHER SERVICE MIDLAND TX
900 AM CDT SAT AUG 01 2015

...IN SOUTHWEST TEXAS AND SOUTHEAST NEW MEXICO...

CITY           SKY/WX    TMP DP  RH WIND       PRES   REMARKS
ALPINE         MOSUNNY   75  60  60 CALM      30.26R
ANDREWS        FAIR      78  63  59 CALM      30.16R
ARTESIA        SUNNY     77  66  69 NE9       30.17R
BIG SPRING     SUNNY     75  63  66 NE12      30.16R
CARLSBAD       SUNNY     79  63  57 NW8       30.14R
DRYDEN           N/A     82  68  62 NW6       30.06R
FORT STOCKTON  SUNNY     78  64  61 S8        30.11R
GUAD PASS      MOSUNNY   74  57  55 E6        30.28R
HOBBS          SUNNY     73  66  78 NE8       30.19R
MARFA          MOSUNNY   72  61  68 CALM      30.23R
MIDLAND AIRPK  SUNNY     80  64  56 SE3       30.13R
MIDLAND INTL   SUNNY     78  66  66 SE5       30.12R
ODESSA         SUNNY     80  63  55 MISG      30.14R
PECOS          SUNNY     78  63  59 E9        30.09R
PRESIDIO       FAIR      82  60  47 MISG      30.07S
SEMINOLE       MOSUNNY   74  64  70 E7        30.18R
SNYDER         SUNNY     72  68  86 E13       30.14S
WINK           SUNNY     80  63  55 SE12      30.10R
$$
...OTHER STATIONS IN TEXAS...

CITY           SKY/WX    TMP DP  RH WIND       PRES   REMARKS
ABILENE        PTSUNNY   77  67  71 NE6       30.12R
AMARILLO       LGT RAIN  67  65  93 S5        30.21S
AUSTIN         PTSUNNY   79  65  62 NE7       30.01R
BROWNSVILLE    SUNNY     83  76  79 N3        29.95R
CORPUS CHRISTI PTSUNNY   82  74  76 NE5       29.97R
DALLAS FTW     PTSUNNY   84  62  47 SE3       30.06R
DEL RIO        SUNNY     83  69  62 E5        29.99R
EL PASO        MOSUNNY   77  60  55 N13       30.15R
HOUSTON INT    MOSUNNY   83  66  56 E9        29.99R
LUBBOCK        CLOUDY    70  65  84 NE10      30.19R
SAN ANGELO     SUNNY     80  68  66 NE5       30.09R
SAN ANTONIO    MOSUNNY   83  69  62 NE8       30.01R
WACO           SUNNY     81  62  52 E6        30.05R
WICHITA FALLS  NOT AVBL
$$
...OTHER LOCATIONS IN NEW MEXICO...

CITY           SKY/WX    TMP DP  RH WIND       PRES   REMARKS
ALAMAGORDO     SUNNY     72  57  60 SE6       30.20R
ALBUQUERQUE    MOSUNNY   70  59  68 NW3       30.29S
CANNON AFB     PTSUNNY   68  66  94 S7        30.22S
CLOVIS         PTSUNNY   68  64  88 S8        30.23S
HOLLOMAN AFB   SUNNY     75  59  58 N7        30.17R
ROSWELL        SUNNY     76  65  68 NE7       30.17R
RUIDOSO          N/A    N/A N/A N/A MISG        N/A
SANTA FE       MOSUNNY   64  59  83 NW3       30.35S
TRUTH OR CONSE MOSUNNY   69  61  75 CALM      30.23R
TUCUMCARI      PTSUNNY   71  67  87 S5        30.19R
$$

USA.gov is the U.S. government's official web portal to all federal, state and local government web resources and services.